| time (UTC) | temp F | wind direction | speed knots | gust knots | rain 1hr in | rain 24hr in | rain mn in | humidity % | barometer mb |
| 20260506143501 | 46 | 38 | 0.9 | 1.7 | 0.00 | 0.00 | 0.00 | 58 | 1015.2 |
| 20260506142502 | 46 | 69 | 0.9 | 1.7 | 0.00 | 0.00 | 0.00 | 63 | 1015.3 |
| 20260506142002 | 45 | 6 | 0.9 | 1.7 | 0.00 | 0.00 | 0.00 | 61 | 1015.1 |
| 20260506141502 | 46 | 23 | 0.9 | 1.7 | 0.00 | 0.00 | 0.00 | 60 | 1015.0 |
| 20260506135001 | 44 | 322 | 1.7 | 2.6 | 0.00 | 0.00 | 0.00 | 65 | 1015.0 |
| 20260506134003 | 44 | 21 | 0.9 | 1.7 | 0.00 | 0.00 | 0.00 | 66 | 1015.0 |
| 20260506133002 | 43 | 58 | 2.6 | 4.3 | 0.00 | 0.00 | 0.00 | 67 | 1014.7 |
| 20260506131502 | 43 | 339 | 0.9 | 1.7 | 0.00 | 0.00 | 0.00 | 67 | 1015.0 |
| 20260506131002 | 43 | 358 | 0.9 | 1.7 | 0.00 | 0.00 | 0.00 | 67 | 1014.9 |
| 20260506124501 | 42 | 34 | 0.0 | 0.0 | 0.00 | 0.00 | 0.00 | 67 | 1014.6 |
| 20260506124002 | 42 | 16 | 0.9 | 1.7 | 0.00 | 0.00 | 0.00 | 69 | 1014.6 |
| 20260506123502 | 41 | 50 | 1.7 | 2.6 | 0.00 | 0.00 | 0.00 | 69 | 1014.3 |
| 20260506123002 | 41 | 61 | 0.9 | 2.6 | 0.00 | 0.00 | 0.00 | 71 | 1014.3 |
| 20260506122501 | 42 | 341 | 1.7 | 3.5 | 0.00 | 0.00 | 0.00 | 69 | 1014.3 |
| 20260506122002 | 42 | 341 | 0.0 | 0.0 | 0.00 | 0.00 | 0.00 | 70 | 1014.1 |
| 20260506121501 | 41 | 21 | 0.0 | 0.0 | 0.00 | 0.00 | 0.00 | 73 | 1014.2 |
| 20260506121002 | 41 | 333 | 0.0 | 0.0 | 0.00 | 0.00 | 0.00 | 73 | 1014.2 |
| 20260506120002 | 41 | 36 | 0.0 | 0.0 | 0.00 | 0.00 | 0.00 | 73 | 1013.9 |
| 20260506115502 | 42 | 36 | 0.0 | 0.0 | 0.00 | 0.00 | 0.00 | 74 | 1013.8 |
| 20260506115002 | 41 | 4 | 0.0 | 0.0 | 0.00 | 0.00 | 0.00 | 74 | 1013.8 |
| 20260506114501 | 41 | 19 | 0.9 | 2.6 | 0.00 | 0.00 | 0.00 | 76 | 1013.8 |
| 20260506114003 | 41 | 15 | 0.0 | 0.0 | 0.00 | 0.00 | 0.00 | 77 | 1013.5 |
| 20260506113502 | 41 | 320 | 0.0 | 0.0 | 0.00 | 0.00 | 0.00 | 76 | 1013.6 |
| 20260506112002 | 39 | 347 | 0.0 | 0.0 | 0.00 | 0.00 | 0.00 | 80 | 1013.5 |
| 20260506111501 | 39 | 359 | 0.0 | 0.0 | 0.00 | 0.00 | 0.00 | 80 | 1013.1 |
| 20260506111002 | 39 | 4 | 0.0 | 0.0 | 0.00 | 0.00 | 0.00 | 80 | 1013.3 |
| 20260506110002 | 38 | 3 | 0.0 | 0.0 | 0.00 | 0.00 | 0.00 | 83 | 1013.0 |
| 20260506104502 | 38 | 351 | 0.0 | 0.0 | 0.00 | 0.00 | 0.00 | 82 | 1012.5 |
| 20260506102502 | 39 | 18 | 0.0 | 0.0 | 0.00 | 0.00 | 0.00 | 79 | 1012.3 |
| 20260506102001 | 39 | 18 | 0.0 | 0.0 | 0.00 | 0.00 | 0.00 | 80 | 1012.5 |
| 20260506101502 | 40 | 19 | 0.0 | 0.0 | 0.00 | 0.00 | 0.00 | 78 | 1012.3 |
| 20260506101001 | 40 | 2 | 0.0 | 0.0 | 0.00 | 0.00 | 0.00 | 79 | 1012.3 |
| 20260506100502 | 40 | 2 | 0.0 | 0.0 | 0.00 | 0.00 | 0.00 | 79 | 1012.2 |
| 20260506100002 | 41 | 3 | 0.0 | 0.0 | 0.00 | 0.00 | 0.00 | 79 | 1011.9 |
| 20260506095503 | 41 | 358 | 0.0 | 0.0 | 0.00 | 0.00 | 0.00 | 80 | 1012.0 |
| 20260506095002 | 42 | 357 | 0.0 | 0.0 | 0.00 | 0.00 | 0.00 | 80 | 1011.8 |
| 20260506094501 | 42 | 12 | 0.0 | 0.0 | 0.00 | 0.00 | 0.00 | 80 | 1011.8 |
| 20260506093502 | 42 | 16 | 0.0 | 0.0 | 0.00 | 0.00 | 0.00 | 83 | 1011.9 |
| 20260506093002 | 42 | 98 | 0.0 | 0.0 | 0.00 | 0.00 | 0.00 | 85 | 1011.7 |
| 20260506092501 | 43 | 31 | 0.0 | 0.0 | 0.00 | 0.00 | 0.00 | 86 | 1011.8 |
| 20260506091501 | 43 | 356 | 0.0 | 0.0 | 0.00 | 0.00 | 0.00 | 86 | 1011.8 |
| 20260506091002 | 42 | 356 | 0.0 | 0.0 | 0.00 | 0.00 | 0.00 | 86 | 1011.6 |
| 20260506090502 | 43 | 356 | 0.0 | 0.0 | 0.00 | 0.00 | 0.00 | 85 | 1011.8 |
| 20260506090002 | 43 | 356 | 0.0 | 0.0 | 0.00 | 0.00 | 0.00 | 85 | 1011.7 |
| 20260506085006 | 42 | 356 | 0.0 | 0.0 | 0.00 | 0.00 | 0.00 | 85 | 1011.7 |
| 20260506083505 | 42 | 356 | 0.0 | 0.0 | 0.00 | 0.00 | 0.00 | 84 | 1011.7 |
| 20260506082002 | 43 | 356 | 0.0 | 0.0 | 0.00 | 0.00 | 0.00 | 83 | 1011.7 |
| 20260506081002 | 43 | 356 | 0.0 | 0.0 | 0.00 | 0.00 | 0.00 | 81 | 1011.9 |
| 20260506072505 | 45 | 1 | 0.0 | 0.0 | 0.00 | 0.00 | 0.00 | 75 | 1011.7 |
| 20260506072005 | 45 | 5 | 0.0 | 0.0 | 0.00 | 0.00 | 0.00 | 74 | 1011.5 |
| 20260506071006 | 45 | 6 | 0.0 | 0.0 | 0.00 | 0.00 | 0.00 | 73 | 1011.7 |
| 20260506062502 | 46 | 1 | 0.0 | 0.0 | 0.00 | 0.00 | 0.00 | 66 | 1011.6 |
| 20260506061505 | 46 | 336 | 0.0 | 0.0 | 0.00 | 0.00 | 0.00 | 65 | 1011.8 |
| 20260506061006 | 47 | 333 | 0.0 | 0.0 | 0.00 | 0.00 | 0.00 | 64 | 1011.9 |
| 20260506060501 | 47 | 332 | 0.0 | 0.0 | 0.00 | 0.00 | 0.00 | 63 | 1011.8 |
| 20260506051002 | 48 | 344 | 0.0 | 0.0 | 0.00 | 0.00 | 0.00 | 58 | 1011.3 |
| 20260506050501 | 48 | 353 | 0.0 | 0.0 | 0.00 | 0.00 | 0.00 | 59 | 1011.6 |
| 20260506042502 | 47 | 16 | 0.0 | 0.0 | 0.00 | 0.00 | 0.00 | 60 | 1011.2 |
| 20260506042001 | 47 | 16 | 0.0 | 0.0 | 0.00 | 0.00 | 0.00 | 59 | 1011.3 |
| 20260506040502 | 47 | 16 | 0.0 | 0.0 | 0.00 | 0.00 | 0.00 | 59 | 1011.3 |
| 20260506040002 | 47 | 16 | 0.0 | 0.0 | 0.00 | 0.00 | 0.02 | 64 | 1011.4 |
| 20260506035001 | 47 | 16 | 0.0 | 0.0 | 0.00 | 0.02 | 0.02 | 61 | 1011.5 |
| 20260506034502 | 47 | 16 | 0.0 | 0.0 | 0.00 | 0.02 | 0.02 | 64 | 1011.5 |
| 20260506034002 | 47 | 16 | 0.0 | 0.0 | 0.00 | 0.00 | 0.02 | 62 | 1011.5 |
| 20260506033502 | 46 | 16 | 0.0 | 0.0 | 0.00 | 0.00 | 0.02 | 64 | 1011.3 |
| 20260506033001 | 46 | 16 | 0.0 | 0.0 | 0.00 | 0.00 | 0.02 | 69 | 1011.2 |
| 20260506032502 | 47 | 16 | 0.0 | 0.0 | 0.00 | 0.00 | 0.02 | 65 | 1011.3 |
| 20260506032001 | 46 | 16 | 0.0 | 0.0 | 0.00 | 0.00 | 0.02 | 64 | 1011.4 |
| 20260506031001 | 46 | 16 | 0.0 | 0.0 | 0.00 | 0.00 | 0.02 | 67 | 1011.5 |
| 20260506030001 | 47 | 16 | 0.0 | 0.0 | 0.00 | 0.00 | 0.02 | 67 | 1011.4 |
| 20260506025502 | 47 | 16 | 0.0 | 0.0 | 0.00 | 0.00 | 0.02 | 63 | 1011.3 |
| 20260506024502 | 47 | 16 | 0.0 | 0.0 | 0.00 | 0.00 | 0.02 | 63 | 1011.3 |
| 20260506024001 | 47 | 16 | 0.0 | 0.0 | 0.00 | 0.00 | 0.02 | 65 | 1011.2 |
| 20260506023502 | 47 | 16 | 0.0 | 0.0 | 0.00 | 0.00 | 0.02 | 66 | 1011.3 |
| 20260506023002 | 47 | 16 | 0.0 | 0.0 | 0.00 | 0.00 | 0.02 | 62 | 1011.5 |
| 20260506022502 | 47 | 16 | 0.0 | 0.0 | 0.00 | 0.00 | 0.02 | 63 | 1011.2 |
| 20260506022002 | 48 | 16 | 0.0 | 0.0 | 0.00 | 0.00 | 0.02 | 64 | 1011.2 |
| 20260506021004 | 48 | 9 | 0.0 | 0.0 | 0.00 | 0.00 | 0.02 | 62 | 1011.2 |
| 20260506020502 | 48 | 339 | 0.0 | 0.0 | 0.00 | 0.00 | 0.02 | 64 | 1011.2 |
| 20260506020002 | 48 | 339 | 0.0 | 0.0 | 0.00 | 0.00 | 0.02 | 61 | 1011.3 |
| 20260506015502 | 49 | 339 | 0.0 | 0.0 | 0.00 | 0.00 | 0.02 | 62 | 1010.9 |
| 20260506015002 | 49 | 339 | 0.0 | 0.0 | 0.00 | 0.00 | 0.02 | 60 | 1010.9 |
| 20260506014502 | 49 | 339 | 0.0 | 0.0 | 0.00 | 0.00 | 0.02 | 55 | 1011.0 |
| 20260506014002 | 50 | 340 | 0.0 | 0.0 | 0.00 | 0.00 | 0.02 | 56 | 1010.8 |
| 20260506013501 | 50 | 340 | 0.0 | 0.0 | 0.00 | 0.00 | 0.02 | 52 | 1010.7 |
| 20260506013002 | 50 | 340 | 0.0 | 0.0 | 0.00 | 0.00 | 0.02 | 53 | 1010.8 |
| 20260506012002 | 50 | 23 | 0.0 | 0.0 | 0.00 | 0.00 | 0.02 | 51 | 1010.5 |
| 20260506011501 | 50 | 280 | 0.0 | 0.0 | 0.00 | 0.00 | 0.02 | 51 | 1010.7 |
| 20260506011002 | 50 | 347 | 0.0 | 0.0 | 0.00 | 0.00 | 0.02 | 54 | 1010.5 |
| 20260506010501 | 50 | 337 | 0.0 | 0.0 | 0.00 | 0.00 | 0.02 | 51 | 1010.5 |
| 20260506010002 | 51 | 337 | 0.0 | 0.0 | 0.00 | 0.00 | 0.02 | 51 | 1010.7 |
| 20260506005002 | 51 | 302 | 0.0 | 0.0 | 0.00 | 0.00 | 0.02 | 51 | 1010.5 |
| 20260506003502 | 51 | 154 | 0.0 | 0.0 | 0.00 | 0.00 | 0.02 | 47 | 1010.5 |
| 20260506002502 | 51 | 317 | 0.0 | 0.0 | 0.00 | 0.00 | 0.02 | 48 | 1010.4 |
| 20260506002002 | 51 | 313 | 0.0 | 0.0 | 0.00 | 0.00 | 0.02 | 47 | 1010.7 |
| 20260506001002 | 52 | 310 | 0.0 | 0.0 | 0.00 | 0.00 | 0.02 | 47 | 1010.4 |
| 20260505235001 | 52 | 296 | 0.0 | 0.0 | 0.00 | 0.00 | 0.02 | 44 | 1010.0 |
| 20260505232502 | 53 | 291 | 0.0 | 0.0 | 0.00 | 0.00 | 0.02 | 46 | 1009.8 |
| 20260505232002 | 53 | 323 | 0.0 | 0.0 | 0.00 | 0.00 | 0.02 | 44 | 1009.7 |
| 20260505231002 | 54 | 328 | 0.9 | 1.7 | 0.00 | 0.00 | 0.02 | 44 | 1009.6 |
| 20260505225002 | 54 | 330 | 0.9 | 1.7 | 0.00 | 0.00 | 0.02 | 43 | 1009.7 |
| 20260505224501 | 54 | 221 | 2.6 | 3.5 | 0.00 | 0.00 | 0.02 | 43 | 1010.0 |
| 20260505224002 | 54 | 320 | 0.9 | 1.7 | 0.00 | 0.00 | 0.02 | 44 | 1010.0 |
| 20260505223002 | 55 | 225 | 0.9 | 1.7 | 0.00 | 0.00 | 0.02 | 43 | 1009.9 |
| 20260505222502 | 55 | 111 | 0.9 | 1.7 | 0.00 | 0.00 | 0.02 | 43 | 1009.7 |
| 20260505221502 | 55 | 255 | 0.9 | 1.7 | 0.00 | 0.00 | 0.02 | 47 | 1009.7 |
| 20260505220502 | 55 | 219 | 1.7 | 2.6 | 0.00 | 0.00 | 0.02 | 46 | 1009.8 |
| 20260505220001 | 55 | 298 | 0.9 | 1.7 | 0.00 | 0.00 | 0.02 | 45 | 1009.7 |
| 20260505215502 | 56 | 302 | 0.0 | 0.0 | 0.00 | 0.00 | 0.02 | 50 | 1010.0 |
| 20260505215001 | 56 | 322 | 0.0 | 0.0 | 0.00 | 0.00 | 0.02 | 50 | 1009.8 |
| 20260505214502 | 56 | 3 | 0.0 | 0.0 | 0.00 | 0.00 | 0.02 | 46 | 1009.8 |
| 20260505212501 | 56 | 236 | 0.9 | 1.7 | 0.00 | 0.00 | 0.02 | 50 | 1009.9 |
| 20260505211002 | 56 | 314 | 1.7 | 1.7 | 0.00 | 0.00 | 0.02 | 52 | 1009.8 |
| 20260505205502 | 56 | 253 | 0.9 | 1.7 | 0.00 | 0.00 | 0.02 | 56 | 1009.9 |
| 20260505204502 | 56 | 203 | 1.7 | 3.5 | 0.00 | 0.00 | 0.02 | 52 | 1009.7 |
| 20260505204001 | 56 | 297 | 0.9 | 1.7 | 0.00 | 0.00 | 0.02 | 55 | 1009.8 |
| 20260505203502 | 56 | 234 | 1.7 | 1.7 | 0.00 | 0.00 | 0.02 | 52 | 1009.6 |
| 20260505203001 | 56 | 338 | 0.0 | 0.0 | 0.00 | 0.00 | 0.02 | 56 | 1009.8 |
| 20260505202502 | 56 | 162 | 2.6 | 3.5 | 0.00 | 0.00 | 0.02 | 56 | 1009.8 |
| 20260505201001 | 56 | 244 | 2.6 | 2.6 | 0.00 | 0.00 | 0.02 | 58 | 1009.8 |
| 20260505195002 | 55 | 207 | 2.6 | 2.6 | 0.00 | 0.00 | 0.02 | 64 | 1009.8 |
| 20260505194501 | 55 | 167 | 2.6 | 2.6 | 0.00 | 0.00 | 0.02 | 62 | 1009.9 |
| 20260505193002 | 55 | 220 | 1.7 | 2.6 | 0.00 | 0.00 | 0.02 | 63 | 1010.0 |
| 20260505192501 | 55 | 335 | 0.9 | 1.7 | 0.00 | 0.00 | 0.02 | 63 | 1010.0 |
| 20260505192002 | 55 | 257 | 1.7 | 2.6 | 0.00 | 0.00 | 0.02 | 63 | 1009.8 |
| 20260505191002 | 54 | 338 | 0.9 | 1.7 | 0.00 | 0.00 | 0.02 | 67 | 1010.0 |
| 20260505190502 | 54 | 344 | 0.0 | 0.0 | 0.00 | 0.00 | 0.02 | 65 | 1009.8 |
| 20260505190001 | 54 | 258 | 1.7 | 2.6 | 0.00 | 0.00 | 0.02 | 68 | 1009.8 |
| 20260505185502 | 54 | 219 | 1.7 | 2.6 | 0.00 | 0.00 | 0.02 | 66 | 1009.8 |
| 20260505184001 | 55 | 309 | 0.9 | 1.7 | 0.00 | 0.00 | 0.02 | 65 | 1010.0 |
| 20260505183002 | 55 | 214 | 2.6 | 3.5 | 0.00 | 0.00 | 0.02 | 65 | 1009.8 |
| 20260505182501 | 55 | 275 | 0.9 | 1.7 | 0.00 | 0.00 | 0.02 | 66 | 1009.6 |
| 20260505181501 | 54 | 163 | 1.7 | 2.6 | 0.00 | 0.00 | 0.02 | 70 | 1009.6 |
| 20260505180002 | 53 | 324 | 0.9 | 1.7 | 0.00 | 0.00 | 0.02 | 71 | 1009.4 |
| 20260505175501 | 54 | 231 | 2.6 | 3.5 | 0.00 | 0.00 | 0.02 | 69 | 1009.5 |
| 20260505175002 | 54 | 345 | 0.0 | 0.0 | 0.00 | 0.00 | 0.02 | 70 | 1009.5 |
| 20260505174002 | 55 | 231 | 2.6 | 3.5 | 0.00 | 0.00 | 0.02 | 68 | 1009.3 |
| 20260505172001 | 54 | 302 | 0.9 | 1.7 | 0.00 | 0.00 | 0.02 | 72 | 1009.4 |
| 20260505171002 | 53 | 203 | 1.7 | 2.6 | 0.00 | 0.00 | 0.02 | 74 | 1009.3 |
| 20260505170002 | 52 | 176 | 2.6 | 2.6 | 0.00 | 0.00 | 0.02 | 74 | 1009.4 |
| 20260505165502 | 52 | 241 | 1.7 | 1.7 | 0.00 | 0.00 | 0.02 | 76 | 1009.4 |
| 20260505164501 | 51 | 221 | 2.6 | 2.6 | 0.00 | 0.00 | 0.02 | 76 | 1009.5 |
| 20260505164002 | 51 | 223 | 1.7 | 2.6 | 0.00 | 0.00 | 0.02 | 78 | 1009.5 |
| 20260505162001 | 50 | 308 | 0.0 | 0.0 | 0.00 | 0.00 | 0.02 | 77 | 1009.7 |
| 20260505161502 | 50 | 234 | 1.7 | 2.6 | 0.00 | 0.00 | 0.02 | 77 | 1009.7 |
| 20260505161001 | 50 | 86 | 1.7 | 1.7 | 0.00 | 0.00 | 0.02 | 78 | 1009.5 |
| 20260505152502 | 48 | 63 | 1.7 | 1.7 | 0.00 | 0.00 | 0.02 | 82 | 1009.5 |
| 20260505152001 | 48 | 241 | 1.7 | 2.6 | 0.00 | 0.00 | 0.02 | 80 | 1009.6 |
| 20260505151502 | 48 | 49 | 0.9 | 1.7 | 0.00 | 0.00 | 0.02 | 82 | 1009.5 |
| 20260505151002 | 48 | 69 | 0.9 | 1.7 | 0.07 | 0.00 | 0.02 | 81 | 1009.5 |